Lid_Strength_Index
1 1 1 1 -0 -1 -0 0 0 0 0 0 0 -0 -0 -0 -0 0 0 1 1 -1 -2 -2 -2 -2 -2 -1 -1 -1 -2 -2 -2 -2 -1 -1 -1 -1 -1 -1 -1 -1 -1
1 1 1 1 0 0 -0 0 0 0 0 0 0 -0 -0 -0 -0 0 0 1 2 1 -1 -1 -2 -1 -1 -1 -1 -1 -1 -1 -1 -1 -1 -1 -1 -1 -1 -1 -1 -1 -1
1 1 1 1 1 1 1 1 1 1 1 1 1 -0 -0 -0 -0 0 0 1 1 2 1 -0 -1 -1 -1 -1 -1 -1 -1 -1 -1 -1 -1 -1 -1 -1 -1 -1 -1 -1 -1
0 1 1 1 0 1 0 1 1 2 1 2 1 0 0 -0 -0 -0 -0 -0 1 1 1 1 0 -1 -1 -1 -1 -1 -1 -1 -1 -1 -1 -1 -1 -1 -1 -0 -0 -1 -1
-0 1 1 1 1 1 1 1 2 2 2 2 1 1 1 0 0 -0 -0 -0 -0 0 1 1 1 1 -0 -1 -1 -1 -1 -1 -1 -1 -1 -1 -1 -1 -1 -0 -0 -1 -1
0 1 0 1 1 1 1 1 1 2 2 3 3 2 1 0 0 0 0 -0 -0 0 0 -0 -0 0 1 -0 -1 -1 -1 -1 -1 -1 -1 -1 -1 -1 -0 -0 -0 -0 -0
1 1 1 1 1 1 1 1 2 3 4 3 4 4 2 1 2 1 1 1 1 1 1 1 1 1 1 1 -0 -1 -2 -2 -1 -1 -1 -0 -0 -0 -0 -0 -0 -0 -0
0 0 1 1 1 1 1 2 2 3 4 4 4 5 5 3 3 2 1 1 1 1 1 1 1 1 1 1 1 -0 -1 -1 -1 -1 -1 -0 0 -0 -0 -0 -0 -0 -0
6 4 2 0 1 2 2 2 2 2 3 5 3 4 6 6 5 3 3 1 1 1 1 1 1 1 0 0 1 1 1 1 -1 -1 -1 -0 -0 -0 -0 -0 -0 -0 -0
6 6 4 4 3 1 1 1 2 2 2 3 4 3 2 5 5 6 3 4 3 3 3 2 1 1 1 1 1 1 3 4 3 0 -1 -1 -0 -0 -0 -0 -0 -0 -0
6 5 6 5 5 4 4 1 1 2 2 3 3 5 4 4 5 5 6 4 2 3 2 2 2 2 2 1 1 2 4 5 5 3 1 -0 -1 -0 -0 -0 -0 -0 -0
8 7 6 6 6 6 6 5 4 1 2 2 2 2 4 4 4 5 5 4 4 2 2 3 3 2 2 2 2 3 4 6 6 4 3 2 1 -0 -0 -0 -0 -0 -0
7 8 7 6 6 6 6 5 4 5 4 4 4 3 2 4 3 2 3 4 4 3 2 2 3 2 2 1 1 4 4 6 6 5 5 4 3 2 1 1 0 0 0
7 7 7 6 6 7 6 6 6 6 5 5 4 4 4 4 4 4 4 4 5 4 3 3 1 2 2 1 2 4 2 6 7 7 7 6 5 5 4 3 3 2 2
8 7 7 7 6 6 7 7 7 7 7 7 6 5 4 3 4 3 3 3 4 6 5 3 3 1 1 1 2 1 0 4 6 7 8 8 7 6 6 6 5 4 3
8 8 8 8 7 6 7 8 8 8 8 7 7 8 7 6 4 4 4 4 4 5 7 4 3 3 2 0 1 2 1 4 7 8 9 9 9 8 7 7 7 7 6
9 9 9 8 8 7 9 9 9 9 9 9 8 8 8 7 7 6 5 4 4 5 6 4 3 3 3 3 3 2 1 1 2 8 10 10 10 9 9 9 9 7 7
9 9 9 9 9 7 9 10 10 10 10 10 10 9 8 7 7 7 7 6 5 5 5 6 5 4 4 3 3 3 2 2 3 7 9 10 10 10 10 10 9 8 7
10 10 10 10 10 9 10 10 10 10 10 9 9 8 7 7 7 8 8 8 6 6 6 7 7 5 4 3 4 4 6 7 7 8 9 10 10 10 10 10 9 9 9
10 10 10 10 10 10 10 11 11 11 11 10 9 9 8 7 8 8 8 9 8 8 7 6 6 7 6 4 4 4 6 7 8 8 9 11 10 10 10 11 10 11 11
10 10 10 10 10 10 10 10 10 11 11 11 10 10 9 9 9 9 9 10 10 9 8 7 6 6 7 8 7 6 7 10 11 11 12 12 11 12 12 12 11 12 12
11 11 11 10 10 10 10 10 10 11 11 11 11 10 10 9 10 10 10 11 11 10 10 9 9 8 7 6 8 7 9 13 12 12 13 15 12 13 13 13 12 12 12
12 12 11 11 11 10 10 10 10 11 11 11 11 11 11 10 9 9 10 11 11 11 11 11 11 10 10 9 10 10 8 9 10 11 12 16 15 15 14 13 12 12 12
12 11 11 11 11 10 10 10 10 10 11 11 11 11 10 10 10 9 9 10 11 11 11 11 11 11 10 10 10 10 10 10 12 13 12 15 16 16 15 13 12 12 13
11 11 11 11 11 11 10 10 10 11 11 12 11 10 10 10 10 9 10 10 11 11 10 10 11 11 11 11 11 11 12 13 13 14 14 14 15 16 15 16 15 13 13
11 11 11 11 10 11 10 9 10 10 10 10 9 9 8 9 9 9 9 10 11 11 11 11 11 11 11 12 11 10 10 12 13 14 14 14 15 16 17 16 16 16 15